Regional Weather Roundup
Issued by NWS Sioux Falls, SD

Home | Current Version | Previous Version | Graphics & Text | Print | Product List | Glossary Off
Versions: 1 2 3 4 5 6 7 8 9 10 11 12 13 14 15 16 17 18 19 20 21 22 23 24 25 26 27 28 29 30 31 32 33 34 35 36 37 38 39 40 41 42 43 44 45 46 47 48 49 50

320
ASUS43 KFSD 221810
RWRFSD

WEATHER ROUNDUP FOR SE SOUTH DAKOTA/SW MINNESOTA/NW IOWA
NATIONAL WEATHER SERVICE SIOUX FALLS SD
100 PM CDT SAT JUL 22 2017

NOTE: "FAIR" INDICATES FEW OR NO CLOUDS BELOW 12,000 FEET WITH NO
SIGNIFICANT WEATHER AND OR OBSTRUCTIONS TO VISIBILITY.


SDZ038>040-050-052>070-221900-
SOUTHEAST SOUTH DAKOTA

CITY           SKY/WX    TMP DP  RH WIND       PRES   REMARKS
BROOKINGS      MOSUNNY   81  70  69 W13       29.93R
CHAMBERLAIN    CLOUDY    87  68  51 CALM      29.96S
6HR MIN TEMP:  66; 6HR MAX TEMP:  87;

HURON          MOSUNNY   83  71  67 N7        29.92F
6HR MIN TEMP:  65; 6HR MAX TEMP:  83;

MADISON        FAIR      81  73  78 NW10G16   29.93F
MITCHELL       CLOUDY    85  71  63 VRB6      29.93S
6HR MIN TEMP:  68; 6HR MAX TEMP:  85;

SIOUX FALLS    PTSUNNY   83  73  72 NW8       29.90F
6HR MIN TEMP:  69; 6HR MAX TEMP:  84;

WINNER         FAIR      89  63  41 CALM      30.00R
YANKTON        CLOUDY    78  72  81 NW10      29.94R
$$

MNZ071-072-080-081-089-090-097-098-221900-
SOUTHWEST MINNESOTA

CITY           SKY/WX    TMP DP  RH WIND       PRES   REMARKS
FAIRMONT       MOSUNNY   80  71  74 W5        29.87F
JACKSON        SUNNY     81  70  69 W9        29.89R
LUVERNE        SUNNY     82  68  61 NW7       29.90F
MARSHALL       MOSUNNY   83  71  67 NW13      29.88S
6HR MIN TEMP:  69; 6HR MAX TEMP:  83;

MONTEVIDEO     MOSUNNY   84  75  74 NW7       29.87S
PIPESTONE      SUNNY     82  70  65 NW12      29.92S
REDWOOD FALLS  MOSUNNY   84  70  62 W12       29.85S
WINDOM         SUNNY     82  70  65 W13       29.88S
WORTHINGTON    SUNNY     83  73  72 W12       29.90F
$$

IAZ001>003-012>014-020>022-031-032-NEZ013-014-SDZ071-221900-
NORTHWEST IOWA

CITY           SKY/WX    TMP DP  RH WIND       PRES   REMARKS
CHEROKEE       CLOUDY    85  75  72 NW9       29.88R
DENISON        PTSUNNY   84  75  74 N8        29.89S
ESTHERVILLE    MOSUNNY   80  74  81 CALM      29.87S
ORANGE CITY    CLOUDY    81  75  83 W7        29.90S
SHELDON        MOSUNNY   82  73  74 NW9       29.88S
SIOUX CITY     CLOUDY    83  76  79 NW10      29.88F
6HR MIN TEMP:  76; 6HR MAX TEMP:  83;

SPENCER        SUNNY     86  73  65 NW9       29.88S
6HR MIN TEMP:  71; 6HR MAX TEMP:  86;

STORM LAKE     MOSUNNY   84  75  74 N9        29.89R
$$

ABBREVIATIONS USED IN REMARKS
   TC - TEMPERATURE IN CELSIUS
  WCI - WIND CHILL INDEX
   HX - HEAT INDEX
  VSB - VISIBILITY





USA.gov is the U.S. government's official web portal to all federal, state and local government web resources and services.